Wind_Speed
5 4 5 10 13 15 13 10 6 4 5 8 7 5 5 5 3 5 5 5 7 7 5 7 8 7 9 11 10 9 7 7 9 9 8 8 8 8 8 8 8 8 6 5 9 11 12 13 13 13 14 15 16 17 18 19 19 19 19 18 17 17 18 19 20 20 21 20 18 17 16 16 16 14 13 12 10 8 8 8 7 6 6 5 5 4
5 6 12 14 10 9 8 5 4 1 6 6 7 7 5 5 4 5 5 2 4 5 3 3 7 6 9 11 9 8 9 9 11 12 11 10 9 8 8 10 9 7 4 6 9 12 14 15 15 16 16 18 18 18 20 20 20 20 19 19 19 19 20 21 22 23 22 21 19 17 17 17 17 15 14 14 12 10 10 10 9 8 7 6 5 5
5 9 12 9 5 6 7 6 6 5 3 5 3 6 5 5 2 3 1 3 1 4 3 3 7 4 6 7 6 6 8 7 8 9 8 9 10 8 9 9 8 7 5 7 9 12 16 17 17 19 18 19 20 20 20 21 21 21 21 21 22 22 24 24 23 23 21 19 18 17 18 18 17 17 16 15 13 11 10 10 9 7 7 6 5 5
7 8 6 7 7 8 7 7 8 6 2 3 3 4 3 3 3 3 2 3 3 2 4 6 6 3 4 3 2 4 4 2 4 6 5 6 9 9 9 7 7 8 7 9 8 9 15 18 19 20 20 20 21 20 21 22 23 23 23 23 24 23 24 25 24 21 19 18 17 17 18 18 17 18 16 15 13 11 10 10 8 6 5 4 3 3
5 5 5 11 8 9 8 8 10 7 5 3 4 4 2 2 4 3 2 2 5 4 4 9 5 0 4 5 4 3 3 3 5 7 6 7 7 6 6 6 7 7 7 9 9 6 10 16 19 20 20 20 21 21 21 23 23 23 23 23 23 23 22 22 22 21 19 19 19 20 20 19 18 18 16 15 13 11 9 9 7 5 4 3 2 2
5 6 6 13 9 8 8 7 10 9 6 4 3 6 6 5 3 3 4 4 5 2 2 6 3 4 4 9 8 4 5 6 6 8 9 8 7 6 7 8 8 7 6 7 7 7 9 14 18 19 19 19 20 20 21 22 22 22 22 22 21 22 22 19 20 21 20 20 21 22 23 21 20 18 15 14 13 11 9 8 7 5 3 2 1 1
4 5 3 10 11 10 8 7 9 10 7 4 5 8 8 5 1 3 5 3 3 4 3 4 5 4 3 8 10 7 7 8 7 9 10 8 8 8 8 8 8 7 7 7 7 8 10 13 17 18 19 19 19 19 20 20 20 20 20 21 21 22 22 19 19 21 21 21 22 22 22 21 21 19 15 13 13 11 10 8 6 5 3 2 1 1
6 6 3 4 9 10 9 6 7 11 9 4 6 9 8 6 4 2 5 2 2 4 0 1 3 2 2 6 9 10 9 9 9 9 10 10 10 10 10 9 9 8 8 8 7 8 10 13 16 18 18 19 19 19 19 19 19 20 20 20 20 22 22 21 20 22 22 22 23 22 21 19 19 18 16 15 13 11 10 8 6 4 3 1 1 1
6 10 6 4 6 8 7 6 7 10 7 5 7 10 8 7 6 3 5 2 1 3 2 4 3 4 4 4 6 10 11 13 13 14 14 14 13 12 12 11 10 9 9 9 7 7 10 14 18 19 18 18 19 19 20 20 19 19 19 20 20 22 24 22 22 24 24 24 24 23 22 20 18 17 17 16 13 12 10 8 6 4 3 2 2 3
3 8 8 6 4 5 5 6 9 10 5 4 8 8 4 4 4 3 3 2 2 1 5 8 5 4 4 3 7 10 10 12 14 15 15 13 13 13 12 12 11 9 9 9 8 6 9 16 19 18 18 19 20 20 20 20 19 19 19 20 20 22 26 27 25 26 26 25 25 24 23 21 19 18 18 16 14 12 10 8 6 5 4 4 5 6
2 2 5 6 4 4 5 6 7 9 7 5 7 6 4 3 2 3 2 3 2 3 7 8 8 6 4 3 6 9 10 14 14 12 11 11 13 15 13 12 11 10 8 9 9 6 9 17 20 19 19 20 20 21 21 20 19 20 19 20 19 22 27 29 28 27 26 26 25 24 23 22 21 20 19 17 14 12 9 7 7 6 6 6 7 9
6 2 3 3 5 6 5 5 6 8 8 7 6 5 5 2 3 4 3 3 3 6 7 7 8 6 4 4 6 9 11 15 14 12 14 16 16 15 13 12 12 11 9 9 10 7 7 14 20 20 20 22 22 21 22 21 20 20 19 19 19 20 25 27 27 26 26 26 25 23 22 22 21 20 19 17 15 12 9 8 8 7 7 8 10 11
7 4 3 3 4 8 6 5 5 6 8 6 4 7 6 2 1 1 2 1 4 6 5 4 8 4 5 6 8 12 13 14 15 14 15 17 16 14 13 13 11 10 10 10 10 9 6 8 17 21 21 22 23 22 22 22 22 21 20 20 20 22 25 26 26 27 27 26 24 23 22 21 20 19 18 16 14 12 9 9 8 8 9 11 12 13
4 4 3 3 4 7 8 7 6 6 9 8 5 7 7 5 5 6 5 2 4 4 4 2 6 2 4 4 8 14 16 17 16 13 11 12 13 13 11 11 11 10 11 9 9 11 8 7 15 22 23 22 22 23 23 23 23 22 21 21 22 23 25 26 26 26 26 24 24 23 22 21 20 19 18 16 14 12 10 9 9 9 11 13 14 14
7 4 5 7 4 7 10 7 6 7 8 7 3 5 5 5 6 6 4 2 3 2 3 1 3 4 3 4 7 10 10 10 9 6 6 8 9 9 8 10 11 11 10 9 9 11 10 10 14 21 23 23 24 24 24 24 24 23 22 22 24 24 25 25 25 26 25 24 23 22 22 21 20 19 18 15 13 11 10 10 10 11 12 14 15 15
8 5 5 6 4 8 11 6 5 8 7 5 3 4 4 5 5 2 3 4 3 2 1 1 3 4 4 4 4 4 5 5 7 6 7 9 9 11 10 11 12 11 10 10 10 10 12 14 15 18 21 23 24 25 24 24 24 23 22 22 24 25 25 25 25 25 25 24 23 22 21 21 20 18 17 15 13 12 11 11 12 13 14 15 16 16
6 5 5 4 5 8 10 9 7 7 6 3 3 6 5 4 7 4 1 0 3 4 2 1 3 4 2 4 5 1 3 5 8 9 9 10 12 13 11 11 11 11 11 10 10 10 11 14 17 18 20 22 23 24 24 25 25 24 23 23 24 25 24 24 24 23 23 23 22 21 21 20 19 17 16 15 15 14 13 13 13 15 16 17 17 17
5 3 5 6 8 7 7 11 8 7 7 6 6 7 3 4 3 3 2 2 4 3 4 1 3 3 1 2 4 3 4 6 7 9 9 9 11 13 11 11 12 12 11 11 11 11 11 13 18 20 20 21 23 23 24 25 25 24 25 25 26 25 24 23 22 22 21 21 22 21 20 19 18 17 16 16 16 16 16 16 16 17 18 18 18 19
3 2 5 6 11 5 3 9 8 6 4 5 7 6 4 4 3 1 3 2 2 3 3 3 2 2 3 4 3 3 8 9 9 8 9 10 13 13 11 12 13 12 12 11 11 12 12 13 17 22 23 21 23 24 24 25 25 25 26 26 26 25 24 23 22 22 21 21 22 21 20 20 19 18 18 17 18 17 18 18 18 19 20 20 20 19
1 2 2 5 8 6 4 5 8 6 2 2 6 6 4 5 5 3 3 3 3 3 2 2 3 3 5 5 6 10 12 12 11 10 11 14 15 13 11 12 13 13 12 12 11 11 13 15 16 22 25 24 24 25 25 25 26 26 26 26 26 24 23 23 23 22 22 22 22 21 21 21 20 20 19 19 19 19 20 20 19 20 22 22 21 20
2 0 1 3 2 6 5 6 10 10 5 4 7 6 4 2 2 3 2 2 3 3 2 2 2 5 6 5 9 13 12 13 15 14 14 14 13 13 12 13 13 12 12 12 11 10 12 17 19 21 24 25 25 26 26 26 27 27 26 27 26 24 24 24 23 23 23 22 21 21 22 22 21 21 21 21 20 20 21 21 20 21 23 22 21 20
0 1 1 1 1 6 6 4 6 9 7 6 6 5 5 4 4 4 4 1 2 3 3 4 2 6 7 4 8 11 10 11 15 16 14 12 13 12 11 13 14 13 13 13 12 10 11 16 20 21 23 25 25 26 27 27 29 27 26 27 27 26 26 25 24 23 22 22 22 22 22 23 23 23 22 22 22 22 22 22 21 22 23 22 22 20
3 2 0 2 3 6 6 2 8 10 7 6 4 4 5 4 5 6 6 3 2 1 2 3 1 6 6 3 5 6 6 8 10 8 6 7 9 10 10 13 13 11 12 13 12 10 11 16 21 22 23 25 25 25 26 27 30 29 27 28 28 27 27 26 24 24 23 23 23 23 23 24 24 24 23 23 23 23 23 22 22 23 22 22 22 21
3 1 0 3 3 2 4 3 5 8 7 4 4 4 5 6 6 6 5 4 4 3 2 1 2 6 6 4 4 3 4 6 5 3 4 6 7 8 10 12 12 11 11 12 12 11 11 16 20 20 21 23 24 25 25 26 29 29 27 28 29 28 27 26 25 24 24 24 24 24 25 25 25 25 25 25 24 24 23 23 23 23 21 21 21 21
3 1 2 1 3 3 3 3 3 3 5 5 5 7 7 7 6 4 2 4 4 5 6 5 4 7 6 5 2 3 6 6 6 6 6 7 7 8 10 10 12 12 11 12 13 12 13 14 16 18 19 21 23 25 25 26 29 29 27 28 29 28 28 27 26 26 25 25 26 26 26 26 26 26 26 26 25 24 24 24 24 22 21 21 21 20
4 2 3 3 2 4 5 4 3 4 4 4 5 9 9 8 8 5 3 4 4 4 5 6 5 8 7 4 3 3 6 6 6 6 7 7 8 9 10 10 11 11 12 13 14 13 13 12 14 18 20 21 23 25 25 26 29 29 27 28 30 29 29 28 28 27 27 26 27 27 27 27 27 27 26 26 25 25 25 25 24 23 21 20 20 20
3 2 3 5 5 5 6 6 4 4 4 3 6 8 8 8 8 6 4 5 5 3 3 6 7 8 11 6 2 4 6 7 6 8 8 8 9 10 10 10 10 10 10 12 13 13 13 12 13 18 21 22 23 25 26 26 28 29 28 28 29 30 30 30 29 28 27 27 27 27 28 28 27 27 27 26 26 26 26 25 24 22 21 20 19 20
3 1 4 6 7 8 8 6 4 7 9 7 7 8 8 8 10 8 5 6 6 6 4 8 6 7 11 9 7 8 7 7 8 9 9 9 10 10 10 11 11 10 10 11 12 13 14 14 13 15 20 22 23 25 26 25 27 30 29 29 29 30 31 31 30 29 28 27 28 28 28 28 28 27 27 27 27 27 26 25 24 22 21 20 19 20
3 2 4 4 6 9 8 6 5 6 10 9 9 10 9 9 11 10 8 7 8 8 7 7 8 9 10 9 10 10 8 6 6 7 8 9 11 10 12 13 13 12 12 13 14 14 15 15 13 14 19 22 23 24 26 25 26 28 30 30 31 31 32 32 31 30 29 28 29 29 29 29 28 27 27 27 28 27 26 25 23 22 20 19 19 20
2 3 3 2 5 8 3 5 6 6 8 8 10 12 12 11 12 11 8 7 8 7 6 5 8 11 10 8 8 7 4 3 4 6 9 11 12 12 13 14 13 13 14 14 15 15 15 14 14 15 19 22 23 25 26 26 25 26 28 30 31 31 32 32 31 30 30 30 30 31 30 30 29 29 28 28 28 27 26 25 23 21 19 18 19 20
1 3 1 2 3 7 3 1 3 7 9 9 8 9 11 12 11 7 4 3 4 3 2 3 5 8 8 4 4 4 6 7 7 9 10 11 13 14 14 14 13 14 14 14 14 14 14 14 14 15 18 21 25 26 26 27 26 26 27 28 30 32 32 32 31 31 31 31 32 32 32 31 30 29 29 29 28 27 26 24 22 20 18 17 19 21
2 2 1 3 1 6 4 5 3 3 7 8 6 7 8 9 8 5 4 5 6 5 3 5 3 7 7 3 3 5 7 9 9 10 10 10 13 14 15 15 14 15 15 15 15 14 14 15 15 16 19 22 26 27 27 27 27 27 27 28 30 31 32 32 31 31 31 32 33 33 32 31 31 30 30 29 28 27 26 24 22 19 17 17 19 21
4 2 1 2 1 6 4 5 4 5 6 3 6 9 10 7 5 4 2 4 6 7 7 5 6 7 5 4 5 5 8 9 10 11 11 11 13 13 15 16 15 15 16 15 15 15 15 15 17 20 23 25 27 29 29 30 31 31 32 32 32 32 32 31 31 31 31 32 33 33 32 32 31 31 30 30 28 27 26 23 21 18 16 17 19 21
3 3 1 1 1 4 5 5 5 5 5 6 6 6 9 7 7 8 5 7 8 5 3 4 5 5 5 8 9 9 9 8 8 10 11 12 13 13 14 14 14 14 14 14 15 15 14 14 17 22 25 27 28 30 30 31 31 31 32 32 32 32 32 31 30 31 32 33 33 33 33 32 32 31 31 30 29 27 25 23 21 18 17 18 20 22
4 3 1 1 1 3 4 6 4 3 6 7 4 1 3 4 7 9 5 5 9 8 5 5 6 6 5 5 5 6 5 2 3 6 8 10 12 14 14 14 13 14 14 13 14 13 13 15 18 22 25 27 29 29 29 29 28 27 28 29 30 30 30 29 29 29 31 33 33 33 33 33 32 32 31 30 29 27 25 23 21 19 19 19 21 22
6 3 1 1 0 1 3 4 3 5 6 4 3 2 1 3 4 5 1 4 8 9 7 7 6 4 3 4 1 4 4 4 6 4 6 8 9 11 13 14 15 16 16 16 16 17 19 22 25 26 27 28 29 30 30 29 29 28 28 29 29 29 28 29 29 28 30 32 32 33 34 33 32 32 31 31 29 28 26 24 21 20 20 20 21 21
6 4 1 1 0 1 2 1 2 2 3 2 1 0 2 3 4 6 3 6 8 8 8 6 3 5 5 2 2 6 6 7 5 1 5 8 9 10 11 12 14 15 15 16 18 21 24 27 27 27 27 28 29 30 30 30 29 29 29 28 28 28 27 28 29 30 31 32 33 34 34 33 33 32 31 31 30 29 27 24 22 21 20 21 21 21
3 3 3 3 1 2 3 1 3 3 1 4 5 4 3 4 5 6 5 5 7 6 8 7 4 6 6 4 5 6 6 6 1 5 7 9 10 9 8 8 9 11 12 15 17 19 22 24 25 26 28 29 29 30 30 31 30 30 29 29 29 29 28 28 29 31 32 33 33 34 34 33 33 32 32 32 31 30 28 25 23 21 20 20 21 21
4 2 3 3 0 1 3 2 1 2 2 5 7 7 5 4 5 5 4 5 7 5 7 7 6 7 7 7 7 7 6 3 4 7 7 11 11 10 10 9 8 10 14 19 21 22 24 26 27 28 29 29 29 30 31 32 31 30 29 29 30 30 29 30 31 33 34 34 34 34 33 33 33 33 33 32 31 30 28 25 23 20 19 19 20 20
4 3 2 2 1 1 2 1 1 3 2 3 6 7 5 2 5 7 3 6 7 5 6 7 7 8 8 7 6 6 6 5 6 5 6 11 11 10 11 11 11 12 15 19 22 24 25 27 28 28 29 30 31 32 33 33 31 30 29 29 30 30 30 32 33 33 33 33 33 33 33 33 33 33 33 33 32 30 28 25 23 20 19 19 19 20
2 3 1 3 3 2 2 1 2 4 4 4 6 6 4 1 6 5 5 7 5 4 5 6 7 8 9 9 7 5 4 3 3 1 6 11 11 10 10 10 13 15 17 20 24 26 27 28 28 29 30 32 34 35 35 34 31 29 28 29 29 30 31 32 32 32 32 32 32 33 33 33 33 33 32 32 31 30 28 26 23 21 21 21 21 21
0 1 0 2 3 2 2 1 1 4 4 4 5 5 2 2 2 3 6 5 2 3 4 5 7 7 8 10 8 4 0 2 2 3 7 10 11 10 9 10 12 14 16 20 25 27 27 26 26 28 28 30 34 35 35 34 30 28 27 28 29 31 31 31 31 32 32 32 33 33 33 33 33 32 32 32 32 31 30 28 25 23 22 22 22 22
4 2 1 2 3 2 2 3 1 2 4 3 3 2 2 1 4 5 3 3 3 4 3 3 5 6 7 8 8 5 1 3 4 4 6 6 7 9 10 11 12 13 16 20 23 27 28 24 24 27 28 30 34 35 35 33 29 27 27 29 30 30 30 30 32 32 32 32 33 33 33 33 33 33 32 32 32 32 32 29 27 25 25 24 24 23
4 4 3 3 3 3 2 1 2 4 4 3 2 2 2 3 4 3 1 3 4 2 3 3 4 6 7 6 5 5 3 2 4 4 5 6 6 7 8 9 10 12 16 20 23 28 28 25 23 25 27 30 33 34 35 33 29 27 28 29 29 30 30 30 31 32 32 32 32 32 32 32 32 33 32 33 33 33 32 31 30 28 27 26 25 24
4 4 4 3 3 3 4 5 5 4 3 3 2 3 4 4 2 4 4 2 3 2 1 1 2 5 7 4 1 2 2 1 2 3 4 6 7 7 8 8 10 13 16 20 24 28 28 26 25 25 26 29 32 33 34 33 30 29 28 27 29 31 32 32 32 32 32 32 32 32 31 31 31 32 32 33 33 33 33 33 32 30 29 27 25 25
4 3 3 2 1 1 2 3 4 4 3 4 3 4 4 3 1 2 2 0 2 3 2 2 4 3 4 4 3 2 4 4 5 4 4 5 6 7 8 8 9 13 16 18 22 25 25 24 25 25 25 26 30 32 32 31 32 32 29 28 31 33 33 34 34 33 32 31 31 31 31 31 31 31 32 33 33 33 33 34 33 31 30 29 27 25
3 2 2 2 2 1 1 3 3 3 3 5 5 2 0 2 2 1 1 1 2 1 1 1 2 0 3 5 5 5 5 6 6 5 5 6 6 7 8 8 9 12 16 17 20 24 25 23 22 23 23 24 27 29 30 31 31 31 29 30 32 34 34 35 34 33 31 31 31 31 31 32 32 31 32 32 33 32 32 33 33 31 30 29 27 26
1 1 1 1 3 2 4 6 5 4 4 4 3 1 1 4 5 4 3 3 2 2 2 2 2 2 2 2 3 4 4 4 5 6 5 5 6 6 7 7 9 12 14 17 21 23 22 21 21 22 23 25 27 30 31 31 29 27 27 30 32 33 34 34 34 32 31 31 31 31 31 32 32 32 31 32 32 32 32 32 32 31 30 29 29 29
0 1 1 2 3 1 3 5 2 3 5 5 3 2 2 2 3 4 4 4 4 4 5 6 5 3 2 2 1 3 4 2 3 5 5 5 5 6 6 7 10 14 16 20 24 25 24 24 25 25 26 27 29 30 31 29 27 26 28 30 32 33 34 34 33 31 30 30 30 30 30 31 32 32 32 31 31 31 31 32 32 31 31 31 31 32
0 0 1 4 3 1 4 4 2 3 0 3 3 3 4 2 1 3 4 6 5 4 4 6 6 5 4 2 2 3 4 2 3 5 5 4 5 5 6 9 11 13 16 20 22 23 23 25 27 28 27 27 29 30 29 28 28 28 29 31 33 34 35 34 31 29 28 29 29 30 30 30 30 31 31 31 31 29 28 29 30 30 30 29 29 29
2 3 3 4 4 5 6 5 3 4 2 2 2 2 4 3 3 4 4 4 4 4 3 5 6 5 5 5 2 3 4 3 4 5 5 4 5 7 9 11 12 13 15 19 21 19 18 21 24 26 26 27 29 30 29 29 29 29 30 32 33 34 35 34 32 29 28 29 30 31 32 31 31 30 30 30 31 30 28 27 26 27 28 26 26 26
Wind_Direction
147 141 188 201 202 200 198 191 179 46 82 142 129 137 159 155 207 214 212 221 157 153 209 182 167 174 175 177 174 168 165 174 178 178 192 198 197 202 201 206 209 215 216 172 173 182 185 192 193 189 186 182 181 181 180 177 177 179 179 178 177 181 187 182 178 184 186 174 160 152 149 143 138 140 140 134 134 134 134 134 132 131 130 137 142 152
144 185 215 211 200 187 176 162 194 301 59 97 133 154 180 173 201 222 203 236 172 171 252 161 139 171 184 180 177 163 165 185 189 188 196 198 200 204 202 204 205 207 184 156 168 174 176 180 179 179 176 175 172 168 172 173 173 176 176 175 173 174 179 181 184 187 181 171 168 164 156 147 139 139 141 137 136 137 137 138 138 140 142 149 159 168
180 218 217 197 137 126 138 143 193 233 75 68 99 132 169 203 220 246 231 15 59 187 236 157 131 163 181 173 181 179 183 192 190 193 198 197 204 210 206 204 201 197 178 171 173 172 173 167 165 168 166 169 168 164 169 172 173 173 171 171 169 168 170 173 182 185 176 170 174 169 158 152 144 141 142 140 139 140 139 135 133 136 142 152 161 161
195 232 194 143 121 127 143 157 173 223 218 93 80 119 179 220 175 211 240 28 40 127 155 132 115 138 142 133 207 209 203 170 170 196 206 207 214 217 214 209 204 201 187 181 177 167 166 159 159 162 161 164 165 165 169 172 174 172 170 170 165 163 165 169 180 185 177 171 169 162 158 155 148 144 145 141 138 140 138 131 130 134 136 144 158 162
229 268 156 140 151 151 149 162 164 193 227 167 126 156 197 193 174 179 163 87 44 40 109 111 88 217 164 178 214 202 197 187 175 193 212 219 220 222 222 220 210 204 194 189 181 162 158 158 159 159 158 162 165 169 173 175 176 172 171 170 164 165 166 170 182 188 182 173 164 157 152 149 144 142 144 143 139 139 138 133 133 133 129 134 152 168
258 279 157 151 168 161 151 169 172 176 202 220 197 202 202 186 178 107 114 99 64 359 254 120 117 275 198 195 209 183 195 212 192 198 214 215 211 213 217 217 212 199 190 191 181 168 160 156 157 156 157 163 169 177 179 179 178 175 174 169 165 165 164 170 185 190 189 181 170 163 157 152 147 141 141 146 145 147 147 141 137 132 126 127 133 143
229 259 172 161 168 160 164 182 183 167 166 228 221 201 205 201 194 107 127 117 122 202 243 132 161 247 233 208 206 181 193 214 204 208 218 212 206 211 215 215 209 197 186 185 181 174 164 157 155 155 159 168 176 181 181 180 180 178 176 171 169 166 166 180 189 186 189 185 177 175 169 163 158 150 145 149 152 152 149 142 136 131 120 105 80 96
180 207 234 184 165 168 186 187 185 167 157 224 210 178 190 203 215 154 116 113 182 178 210 85 147 162 249 225 195 175 190 212 216 220 220 214 210 210 214 214 205 199 191 186 186 174 165 163 158 156 163 175 180 180 180 180 181 181 178 175 172 167 171 186 189 184 188 186 179 177 171 165 165 160 152 152 154 151 148 143 135 126 112 85 45 80
167 192 206 187 175 188 189 159 158 153 156 222 192 170 182 189 195 159 108 108 158 118 193 251 178 151 256 258 173 173 194 211 217 221 219 214 210 207 210 211 205 200 195 191 191 176 169 167 160 160 169 178 180 177 177 180 182 181 179 176 172 167 169 177 182 183 184 184 180 177 172 165 163 161 155 154 153 150 149 143 132 123 120 113 110 125
172 193 188 161 180 201 159 139 147 147 165 201 160 150 158 170 169 139 129 139 94 131 221 222 189 179 265 267 169 177 198 212 218 222 221 213 207 207 207 205 200 196 192 192 191 180 175 168 160 164 172 175 175 175 177 180 181 180 180 180 175 170 168 169 176 180 179 180 180 177 174 169 163 160 157 154 150 147 146 139 132 131 130 126 127 135
257 205 179 161 177 183 145 142 154 155 155 133 124 114 84 73 64 59 62 99 111 259 237 203 182 189 252 256 188 183 194 205 212 219 215 205 204 206 203 199 195 192 188 188 187 177 173 168 161 165 170 168 169 174 177 179 179 179 182 184 179 172 169 168 173 178 178 179 181 179 179 176 169 165 162 158 151 147 146 142 141 141 136 132 136 140
268 269 214 195 156 145 129 149 169 166 154 129 124 126 105 53 24 33 7 47 160 241 249 196 165 169 227 249 211 205 207 206 208 210 204 200 202 201 197 193 190 189 185 182 184 178 171 165 160 163 167 163 164 171 175 177 178 178 182 185 181 173 169 170 174 177 178 179 182 182 181 179 174 171 169 164 158 154 156 155 151 147 140 139 142 142
249 250 256 279 168 154 142 151 171 174 170 158 134 134 142 156 107 181 242 226 203 244 271 184 146 154 235 237 208 209 218 217 213 213 204 198 199 196 191 188 184 185 184 179 181 182 181 169 160 161 161 159 164 170 174 176 176 176 183 187 182 174 171 173 175 177 178 180 183 183 181 178 175 173 172 168 162 160 162 160 155 151 148 147 146 144
229 283 257 230 197 172 161 159 173 180 183 185 167 154 164 161 166 199 211 229 233 254 305 181 156 181 264 255 210 203 215 221 219 219 204 195 196 189 182 180 178 182 183 179 181 182 185 178 165 164 163 160 164 171 173 174 175 177 184 186 180 175 174 175 175 177 179 180 182 182 180 179 177 174 171 166 161 158 157 156 153 154 155 152 149 147
190 250 226 198 205 182 177 178 164 152 171 188 160 132 159 163 172 196 196 200 226 239 339 334 189 186 196 236 216 206 227 234 224 217 183 176 181 167 161 173 179 182 181 175 179 183 185 181 168 164 165 164 165 170 172 173 174 179 184 184 177 173 173 175 175 176 178 178 179 180 180 179 177 171 165 161 157 153 151 151 152 155 158 156 152 149
181 234 248 205 197 176 176 176 130 129 164 196 116 119 188 186 149 137 184 186 168 140 64 238 220 211 204 252 262 229 250 231 195 179 159 162 163 156 165 179 181 181 177 174 176 179 182 181 170 159 160 163 164 168 172 172 173 179 182 180 175 172 173 175 175 175 176 177 177 179 180 178 173 168 163 157 153 150 149 151 155 158 160 158 153 150
170 248 278 182 191 193 173 167 166 162 163 169 159 176 196 150 116 106 214 227 98 152 221 229 245 295 296 281 319 11 189 187 177 174 171 168 162 164 175 179 179 179 174 175 176 174 175 178 174 162 156 160 163 168 172 173 175 180 181 176 170 169 170 173 175 175 175 176 176 178 178 175 171 169 166 160 154 151 152 155 159 161 159 158 154 152
155 240 280 171 189 226 178 165 187 188 153 149 191 190 130 90 97 104 181 357 65 172 257 266 215 266 214 238 327 36 150 177 184 180 174 166 165 174 181 175 174 173 169 171 173 175 173 173 175 168 160 164 169 172 173 173 176 180 181 177 171 168 170 172 174 174 175 177 176 175 175 174 173 172 168 163 157 154 156 159 161 161 159 156 155 154
154 202 282 196 186 206 158 162 189 215 191 166 178 170 128 166 214 128 154 190 116 168 278 309 261 245 195 212 271 215 189 190 189 178 170 174 180 183 178 172 169 165 167 171 171 175 175 170 170 164 162 167 171 171 170 170 173 176 177 176 173 170 170 171 173 173 175 177 176 174 174 174 173 172 169 163 159 158 160 161 162 162 159 157 156 155
86 145 269 228 190 159 135 176 188 202 244 105 146 159 158 180 200 191 164 170 159 165 232 287 307 271 227 217 210 211 206 187 177 180 187 191 189 184 175 171 169 167 170 173 172 175 172 167 165 161 162 167 168 167 167 167 168 171 172 171 170 169 168 169 171 172 172 174 175 173 172 173 173 172 169 165 162 162 163 163 164 162 160 158 158 156
2 121 228 268 216 155 174 209 193 182 167 136 155 173 181 154 149 191 189 128 142 154 171 194 270 262 244 213 199 213 212 188 178 186 196 196 187 181 175 168 168 170 171 171 169 168 165 162 161 161 163 165 164 163 165 165 164 166 167 167 168 170 168 167 168 170 171 172 173 173 172 173 173 171 169 166 165 166 165 165 165 163 161 159 159 158
242 188 192 281 206 180 202 206 169 171 161 149 165 177 177 143 108 169 214 222 125 147 163 160 224 266 258 215 208 217 206 192 193 193 195 192 181 176 170 165 167 170 170 171 165 160 158 155 154 157 159 158 159 160 163 164 162 164 165 164 166 170 169 168 168 170 171 170 171 173 173 173 172 171 170 167 168 168 167 167 166 164 162 160 160 161
175 140 151 261 221 212 238 200 146 158 145 140 181 181 158 144 131 168 203 216 179 185 157 128 188 272 269 256 246 238 197 192 206 205 187 172 169 167 160 161 165 166 167 168 164 158 153 149 149 152 154 154 156 158 161 162 160 163 165 163 165 168 167 168 169 169 169 169 170 172 172 172 171 171 171 170 170 170 168 167 165 164 164 161 161 162
179 166 295 296 296 286 309 2 123 141 127 132 203 176 156 179 176 168 173 170 185 209 179 131 273 270 277 290 269 218 163 170 180 161 134 136 149 156 157 159 161 162 162 162 163 161 153 146 145 149 153 154 156 158 161 161 158 162 164 162 165 168 167 168 168 168 168 168 168 170 170 171 171 171 172 171 171 171 169 166 164 164 164 162 162 163
199 204 117 9 357 47 66 55 82 159 162 171 203 193 186 184 156 132 126 145 195 210 167 159 242 258 275 319 337 135 135 148 155 142 137 142 149 155 158 157 157 160 159 156 158 158 155 151 149 153 158 159 159 161 164 161 159 162 165 164 166 168 167 168 168 168 168 168 167 169 170 171 172 173 173 172 172 171 169 165 164 164 165 163 163 164
187 190 140 132 130 146 165 171 175 190 181 180 194 194 199 188 161 149 139 155 216 226 163 161 219 258 281 336 26 132 141 147 157 146 138 147 154 156 158 158 157 160 161 158 157 155 155 156 156 158 161 162 163 163 163 162 161 164 167 166 168 170 167 168 169 168 169 169 168 170 172 173 174 174 174 173 171 170 168 165 165 165 165 165 165 166
136 185 181 173 180 189 198 206 187 141 146 192 190 182 191 185 165 144 128 171 197 167 177 210 207 243 271 280 254 213 176 163 167 159 153 154 156 157 158 157 156 159 162 159 156 154 153 156 159 160 161 164 166 164 163 164 164 165 166 165 168 170 168 168 169 169 170 171 171 172 173 174 175 175 174 173 170 169 167 166 166 167 167 168 169 169
97 261 221 195 218 228 213 215 206 158 165 187 180 176 185 172 158 155 172 197 171 136 223 249 194 207 253 251 227 221 201 184 182 175 165 156 155 157 152 150 153 155 157 156 156 155 154 158 162 162 161 163 166 165 163 167 169 168 168 168 168 169 169 170 170 171 172 173 173 173 174 174 175 175 173 172 169 168 167 167 168 169 169 170 173 174
125 272 237 193 252 256 220 213 232 183 170 177 174 179 185 169 165 176 196 200 165 160 224 234 177 192 238 246 229 217 201 189 177 162 149 142 146 151 150 153 159 160 159 161 163 163 162 163 164 164 163 164 166 165 163 169 173 170 169 170 170 171 172 172 172 173 173 174 173 173 173 173 173 173 172 170 168 168 168 168 169 170 171 173 176 177
160 259 244 194 284 284 233 200 226 191 161 170 182 184 181 178 182 187 198 195 174 189 232 207 187 213 232 235 230 213 172 126 108 121 133 143 152 156 156 161 166 167 166 167 169 169 167 165 163 164 164 165 167 167 166 170 173 171 169 170 170 171 172 173 173 173 172 172 171 171 171 171 171 171 170 169 169 169 169 169 170 171 172 175 179 179
184 233 238 74 312 296 334 49 219 191 166 167 187 190 178 177 185 185 178 166 169 219 261 148 189 240 253 237 213 165 133 128 138 149 153 158 161 160 161 167 169 170 171 171 171 171 169 165 162 164 167 169 170 170 169 171 173 172 171 170 170 172 173 174 174 172 170 169 169 169 170 171 170 170 170 170 171 171 170 170 171 171 173 177 181 180
161 229 318 57 341 284 325 29 28 159 145 147 173 187 176 172 179 179 171 175 180 178 127 107 179 245 259 227 155 152 152 152 158 163 161 164 165 163 166 172 173 174 175 173 172 171 170 169 167 169 172 173 172 172 172 171 170 170 171 171 173 173 174 175 174 171 169 168 168 170 171 171 171 171 171 172 172 172 172 172 171 172 174 178 181 180
150 183 286 89 208 272 306 17 37 92 112 155 207 190 179 176 166 155 181 213 193 158 134 152 213 240 230 167 151 168 175 171 175 176 168 165 167 169 174 176 176 177 176 174 174 174 175 175 173 172 173 175 176 176 177 175 173 174 177 177 177 175 174 175 174 171 170 169 170 171 172 172 171 171 172 173 174 174 173 173 172 173 176 178 179 179
130 133 204 138 183 269 309 6 50 102 149 228 241 185 174 176 162 161 188 215 204 188 171 201 235 241 195 176 176 183 189 188 186 181 170 163 166 173 179 179 178 177 175 175 177 177 177 176 174 173 174 177 179 178 178 178 178 178 178 177 176 175 174 173 172 171 171 170 171 172 172 173 173 173 174 175 175 175 174 175 175 175 178 179 177 177
134 122 177 52 64 269 327 37 87 172 219 243 285 279 186 175 161 164 184 216 210 220 248 257 251 233 212 213 193 171 180 165 119 151 167 172 173 173 175 178 177 175 176 178 178 177 175 173 173 175 176 178 178 176 176 178 178 176 174 174 173 173 173 171 170 171 171 170 171 172 173 174 174 174 175 175 176 176 176 176 177 177 179 180 178 178
140 135 151 94 61 282 10 62 146 227 257 282 332 330 151 112 127 139 141 270 234 212 210 231 236 201 201 270 261 121 124 95 85 120 172 181 182 179 177 179 178 178 181 181 179 178 178 178 179 178 177 176 175 175 175 177 176 173 172 172 172 171 171 170 168 170 171 171 172 174 175 176 175 175 175 175 175 176 177 178 178 178 180 179 178 177
128 138 162 207 247 123 115 184 253 291 322 332 352 226 165 154 159 154 174 261 250 205 194 222 219 150 156 217 153 124 115 92 73 224 205 188 189 190 185 182 181 183 184 182 181 181 180 180 180 176 174 173 173 175 175 175 174 171 168 168 169 169 170 169 169 172 174 174 175 176 177 177 177 176 175 176 176 177 178 178 178 179 180 180 178 177
117 171 188 194 224 96 103 16 350 36 331 249 250 269 250 203 191 162 163 254 262 217 202 217 196 150 151 161 151 135 105 84 76 245 216 193 187 182 178 180 181 182 179 173 174 176 175 176 174 172 171 171 173 175 175 174 172 169 166 167 168 168 169 171 173 175 177 178 178 178 178 179 180 178 176 177 178 179 179 179 178 180 182 182 180 177
39 76 119 127 65 45 97 102 131 160 214 238 246 273 282 219 187 149 148 259 268 227 198 202 190 168 161 163 161 144 112 117 241 246 202 183 182 174 169 170 169 172 175 174 173 172 172 172 170 169 170 170 171 174 174 174 172 168 167 169 169 170 172 175 178 179 180 180 180 179 180 180 182 181 179 178 180 181 181 179 179 179 181 183 181 176
1 18 64 115 124 99 110 107 224 225 240 245 247 272 287 200 130 116 164 253 265 237 197 186 186 182 169 161 167 159 148 178 232 249 178 166 169 170 172 170 168 170 170 172 174 172 169 168 166 166 169 171 172 174 174 174 172 170 170 171 171 173 177 180 181 181 181 180 179 180 181 182 183 183 181 181 182 182 182 181 179 178 178 179 177 175
340 13 79 153 142 132 138 106 293 259 251 253 255 267 277 71 84 105 202 232 253 255 219 187 183 185 168 162 178 191 183 198 254 232 144 150 158 168 170 162 163 168 168 168 170 169 166 168 169 170 173 174 173 174 175 174 172 172 173 171 173 179 183 182 181 180 179 179 180 180 181 183 184 185 184 184 185 183 183 183 181 178 176 175 174 172
295 9 53 139 120 123 152 114 336 279 254 249 259 265 256 112 121 208 228 231 240 259 240 195 187 187 174 175 187 196 173 9 19 100 139 154 161 162 156 148 151 161 165 166 168 168 166 169 172 172 173 174 173 174 175 174 174 173 172 173 180 185 184 181 180 179 179 179 180 181 181 184 186 186 185 186 185 183 182 182 182 179 177 175 174 172
169 169 233 209 159 127 71 67 60 241 233 246 282 314 46 118 205 223 253 282 254 239 231 207 199 190 183 191 202 210 262 27 53 99 133 150 153 149 153 158 157 159 162 163 167 170 168 168 171 172 172 173 174 175 176 175 174 172 173 179 186 184 180 179 179 178 178 179 180 181 182 184 185 186 186 186 186 184 182 181 180 179 178 176 174 172
177 175 206 232 190 135 112 147 203 215 230 255 256 179 193 238 219 193 234 300 288 241 197 212 224 207 198 203 206 212 235 25 63 106 127 131 142 149 154 159 157 159 164 165 167 171 170 168 170 170 171 173 174 175 177 177 174 173 178 184 185 180 178 179 178 176 178 179 181 181 182 183 184 185 187 187 186 184 183 182 181 180 179 178 176 174
220 199 182 196 193 167 180 213 238 252 261 273 244 198 229 263 231 180 200 272 314 294 212 249 278 224 205 201 152 162 202 151 111 139 147 147 159 162 158 162 166 166 168 168 170 172 171 169 168 166 168 173 174 176 179 179 176 176 181 183 180 178 178 177 175 176 178 179 180 181 181 182 183 185 187 188 187 185 184 182 181 181 181 181 180 179
242 209 157 161 203 227 224 240 278 308 311 299 276 224 223 259 249 181 186 315 320 283 263 301 306 262 196 184 169 173 193 167 142 152 166 159 163 162 155 160 167 168 169 170 170 171 169 166 165 164 164 170 174 176 179 181 182 183 183 182 180 180 179 176 175 177 178 179 180 180 181 181 182 185 188 188 189 190 188 186 184 184 185 186 186 186
267 169 120 98 100 116 231 259 285 303 294 297 305 301 76 27 3 2 33 351 306 276 234 266 290 340 149 181 193 197 197 175 155 160 167 160 164 169 164 162 164 168 171 172 169 168 165 161 161 161 160 165 172 176 178 183 187 188 184 180 179 179 177 176 176 177 177 178 178 179 181 182 182 184 186 187 188 189 189 189 189 187 186 187 188 190
285 114 116 110 106 136 238 256 272 289 280 273 281 302 30 18 1 0 14 6 347 21 38 19 7 52 97 198 199 175 171 171 164 162 164 164 168 168 164 162 161 162 165 167 167 165 162 159 159 160 160 166 173 177 181 184 187 186 181 178 178 176 175 175 176 177 177 178 178 179 182 184 184 183 185 186 187 187 188 188 188 189 192 196 197 196
242 344 191 124 78 56 248 251 278 344 331 320 321 321 324 347 351 357 18 34 37 44 48 38 22 22 50 53 72 107 109 129 160 156 155 159 162 161 159 157 157 158 160 163 166 168 166 164 163 163 166 171 175 178 181 183 183 183 182 180 178 176 175 176 177 177 177 177 178 180 182 184 185 185 185 186 187 189 192 193 194 197 201 205 206 206
4 299 150 112 97 166 233 229 166 124 254 283 301 338 339 336 4 26 38 43 36 36 64 62 36 21 35 56 82 97 95 113 143 138 141 151 154 154 153 150 152 156 159 162 167 171 171 169 167 166 168 172 175 177 180 181 182 184 184 181 179 179 177 176 175 175 176 177 179 181 182 183 185 187 187 186 186 188 192 196 201 206 209 209 211 212
170 188 168 143 165 219 240 234 171 132 152 214 232 330 338 349 69 68 55 40 12 356 35 77 67 36 9 353 1 121 132 150 146 129 123 126 134 142 149 153 155 155 157 161 164 166 165 165 165 165 167 171 175 177 179 180 182 184 183 182 182 181 180 177 174 174 177 180 183 184 185 184 185 187 187 187 186 186 187 190 197 205 211 214 215 216
Height
760 768 769 761 754 753 754 754 755 757 755 756 762 766 765 766 768 764 757 754 755 760 769 769 770 780 782 779 779 780 783 786 786 788 789 789 790 790 790 790 789 788 786 787 788 790 792 793 794 795 796 797 799 801 803 806 808 810 812 814 817 818 820 821 823 825 827 829 831 833 834 834 835 836 836 837 837 838 839 839 840 841 842 843 843 844
760 766 761 751 749 752 756 758 756 758 759 757 760 764 765 764 763 760 757 756 754 756 769 773 774 784 782 777 779 780 783 785 783 785 786 787 788 788 789 788 787 787 787 787 789 790 791 793 794 795 796 797 799 801 803 806 808 810 812 814 817 819 820 821 823 825 827 829 831 831 833 833 834 836 836 837 838 839 839 840 841 842 843 844 844 845
764 759 750 749 752 753 757 759 757 760 762 763 763 764 767 765 761 759 757 759 757 756 770 778 779 786 784 779 781 781 782 781 780 782 783 785 787 787 787 786 786 787 787 787 788 789 791 792 794 795 796 798 799 802 804 806 808 810 812 814 817 819 820 822 825 826 827 829 831 831 832 833 834 835 837 837 839 840 840 841 842 843 844 845 846 846
763 754 748 751 752 752 757 759 759 763 765 767 768 767 768 767 764 762 760 763 764 762 770 779 783 787 784 783 784 782 781 781 781 782 782 783 785 785 784 784 786 786 787 787 787 788 790 791 793 794 796 798 799 801 803 806 807 809 812 814 816 818 820 823 826 827 827 829 830 832 833 834 834 835 837 838 839 841 841 842 843 844 845 846 847 847
755 749 746 749 749 752 758 760 761 765 769 769 769 768 766 765 762 761 763 765 768 771 771 775 787 792 786 786 786 782 782 782 781 783 783 783 783 783 784 783 784 785 786 787 786 787 789 790 792 793 795 797 799 801 802 805 807 809 811 813 816 818 820 824 826 826 827 828 830 831 833 834 835 836 837 838 839 841 842 843 844 844 846 847 847 848
753 747 744 746 749 752 756 761 760 762 770 771 768 765 761 761 760 762 766 764 768 778 772 770 784 792 787 786 785 782 783 782 781 782 782 782 782 783 783 783 782 784 785 786 786 788 788 789 791 792 795 796 798 800 802 804 806 808 811 814 817 819 821 825 826 826 827 827 828 829 831 832 834 835 837 838 839 841 842 843 844 845 846 847 848 848
751 747 745 745 748 751 755 759 757 758 770 774 765 759 759 760 760 763 766 764 770 777 772 768 775 783 788 787 782 781 783 782 781 781 781 781 781 782 782 781 782 783 784 785 786 787 788 789 790 791 794 796 798 800 802 804 806 809 811 814 817 818 821 824 825 826 827 827 827 828 829 831 832 834 836 838 840 841 842 844 845 846 847 848 848 848
746 747 748 747 748 751 753 756 754 753 765 769 759 755 759 760 761 765 766 767 772 775 775 774 772 776 784 781 775 778 782 783 782 780 779 778 778 779 780 779 780 781 782 784 784 785 787 788 789 791 793 796 798 800 802 804 807 809 811 814 817 818 821 823 824 825 826 826 827 828 829 831 832 834 836 838 840 841 843 844 845 846 847 848 848 848
742 746 749 748 750 751 750 749 750 751 758 759 753 753 756 758 760 762 766 768 772 776 778 778 775 775 779 777 773 777 782 783 781 777 774 774 774 776 777 777 778 779 780 782 784 784 785 787 788 791 794 796 798 800 802 804 807 809 811 814 816 818 820 821 822 824 826 826 827 828 829 831 833 835 836 838 840 842 843 844 846 847 848 848 848 848
740 741 743 747 751 751 746 744 746 749 751 751 752 754 755 759 760 761 767 769 772 778 775 772 774 774 777 779 776 776 781 780 774 769 766 768 771 772 773 775 776 778 779 781 783 783 784 786 787 791 794 796 798 800 802 804 807 809 811 813 815 817 819 821 822 824 825 826 827 828 829 830 832 835 836 839 841 842 844 845 847 848 848 848 848 849
739 737 738 742 745 745 743 744 744 744 746 750 755 757 760 764 763 765 769 769 777 781 769 765 770 770 774 778 774 770 769 765 763 764 764 765 768 768 769 771 773 776 778 779 782 783 784 785 787 791 794 796 798 800 802 804 806 808 810 812 814 816 818 820 823 823 824 825 827 828 829 830 832 834 836 839 841 843 845 846 847 848 848 848 849 849
741 741 741 737 737 738 741 745 745 741 743 748 751 755 764 770 769 772 774 775 783 779 763 760 767 772 776 773 767 761 752 750 753 755 757 758 761 763 764 767 770 773 775 778 780 782 783 784 786 790 793 795 797 800 802 803 806 808 809 812 814 816 817 819 821 822 823 825 827 828 829 830 832 834 837 839 841 843 845 846 847 847 848 848 849 850
745 743 741 736 733 734 740 748 750 746 744 748 750 755 768 777 779 782 780 780 782 772 766 769 766 771 773 759 754 757 749 745 743 741 745 749 753 757 760 763 766 770 773 775 778 780 782 782 783 787 791 793 796 799 801 803 805 807 809 811 813 815 816 818 819 821 823 825 826 828 829 831 833 835 837 839 842 844 845 846 846 847 847 848 850 851
751 745 740 739 736 730 734 746 753 750 747 747 750 754 764 776 784 788 784 782 778 769 772 775 764 767 768 749 741 746 742 737 733 733 738 743 748 753 757 761 764 768 770 773 776 778 780 781 781 785 789 792 795 798 800 802 804 806 809 811 812 814 816 817 819 821 823 825 826 828 830 831 833 835 838 840 842 844 845 845 846 847 848 849 850 851
753 750 740 737 736 729 730 738 741 743 745 745 745 749 756 763 770 779 780 777 777 773 775 774 765 762 758 742 735 735 734 733 732 734 737 740 746 751 756 761 763 766 769 771 774 776 778 780 781 783 786 790 793 796 799 801 803 805 808 810 811 813 815 816 818 820 822 825 826 828 830 832 834 836 838 840 842 843 845 845 846 847 849 850 851 852
749 747 733 729 729 726 729 732 730 738 749 748 745 749 754 751 753 766 773 771 769 770 773 773 763 754 745 735 736 737 734 734 733 734 737 740 745 749 754 758 760 763 766 768 772 775 777 779 781 782 784 788 791 795 798 800 802 805 807 809 810 812 814 816 818 820 822 824 826 828 830 832 834 836 838 840 842 843 845 846 847 848 849 850 851 852
748 743 731 727 728 725 727 728 727 734 745 749 749 748 746 741 742 758 771 775 770 765 769 770 758 751 745 735 735 738 734 734 736 734 737 740 743 747 750 753 757 760 763 766 769 772 775 778 780 782 783 786 790 793 796 799 801 804 806 809 810 812 814 816 818 820 822 824 826 828 830 832 834 836 838 840 842 843 845 846 847 849 850 851 852 853
743 740 729 727 730 726 722 724 726 726 731 743 748 741 738 742 745 752 762 772 775 768 767 769 758 753 751 741 738 739 736 737 739 735 737 741 743 745 747 750 754 757 761 764 768 771 773 776 778 780 782 786 789 792 795 798 800 803 806 808 809 811 813 816 818 820 822 824 826 828 830 832 834 836 838 840 842 844 845 847 848 849 851 852 853 854
737 738 730 725 727 725 721 725 732 729 725 731 735 731 737 749 754 756 760 766 773 772 767 767 765 758 750 740 733 733 735 737 738 738 739 741 741 742 744 748 751 755 759 762 765 768 770 773 776 777 781 785 789 792 795 797 799 802 806 807 808 811 813 815 818 820 822 824 826 828 830 832 834 836 839 840 842 844 846 847 848 850 851 852 854 855
734 737 734 726 722 723 725 730 735 735 730 728 729 730 736 742 746 751 759 759 761 769 768 764 766 759 744 732 721 718 726 731 734 737 736 734 736 737 740 744 748 752 756 759 762 764 766 770 774 776 780 785 788 791 794 796 798 801 805 806 808 811 813 815 817 819 822 824 826 828 830 832 835 837 839 841 843 845 846 848 849 850 851 852 854 855
735 736 734 729 724 725 727 726 725 728 732 732 733 738 738 738 741 744 754 755 751 759 766 764 763 748 728 721 714 709 719 725 725 727 727 727 731 733 736 740 745 749 753 756 759 762 764 768 772 776 779 784 788 791 793 796 798 801 804 806 807 810 813 815 817 819 821 824 826 828 830 832 835 837 839 841 843 845 846 848 849 850 851 853 854 856
735 734 734 732 729 728 722 716 716 720 727 729 731 737 737 737 743 749 757 757 748 751 759 761 757 735 713 715 712 706 714 719 717 717 718 723 727 731 735 737 741 746 750 753 757 760 763 766 771 776 779 784 787 790 793 795 797 800 804 805 807 810 813 814 817 819 821 824 826 828 830 832 835 837 839 841 843 845 847 848 849 850 851 853 854 856
730 733 735 733 729 727 720 713 713 714 720 725 724 729 734 735 739 747 755 754 748 750 754 756 752 728 712 719 717 708 713 716 716 717 719 724 728 731 735 737 741 745 748 752 756 759 763 765 770 775 779 783 786 789 792 794 795 799 803 804 806 809 812 814 816 819 821 824 826 828 831 833 835 837 839 841 843 845 847 847 849 850 851 853 854 856
728 733 736 732 726 724 720 715 714 713 718 725 725 726 730 730 729 733 741 743 744 747 748 754 754 726 711 722 719 711 714 715 716 720 722 726 730 732 735 737 740 745 748 752 755 758 762 765 769 775 778 782 785 788 792 793 794 798 802 804 805 809 812 813 816 819 821 823 826 828 831 833 835 837 839 841 843 844 846 847 848 850 851 853 855 857
728 733 735 736 734 732 729 727 726 722 719 721 722 722 723 724 728 733 736 738 741 741 739 748 751 724 710 721 719 711 715 716 717 720 721 726 730 732 735 737 740 745 748 751 754 757 761 764 768 773 777 781 784 787 791 792 794 798 801 803 805 808 811 813 816 818 820 823 825 828 831 832 834 837 838 841 842 844 846 847 848 850 851 853 855 857
725 731 731 735 738 738 736 734 730 725 719 716 716 719 721 724 728 732 736 740 742 742 740 740 738 719 708 718 719 714 716 717 718 721 721 725 729 731 734 736 739 744 747 750 753 756 760 763 766 771 775 779 783 786 789 791 793 797 800 802 804 807 810 813 815 818 820 823 825 827 830 832 834 836 838 840 842 843 845 846 848 850 852 853 855 857
723 728 726 726 727 727 724 721 717 714 717 718 715 719 723 725 728 731 735 738 738 741 742 733 726 717 706 708 715 718 717 716 718 720 721 725 728 730 733 735 739 743 746 748 752 755 759 763 766 769 773 777 782 784 787 790 793 796 799 801 804 806 809 812 815 817 820 822 824 827 829 831 833 835 837 839 841 843 845 846 848 850 852 853 855 857
722 725 723 722 719 717 715 713 710 707 710 715 715 718 722 724 727 730 731 731 732 738 739 728 724 724 709 700 708 715 716 715 717 718 720 723 727 728 731 735 739 743 746 749 752 754 758 762 765 768 772 776 781 783 785 790 793 794 797 800 803 806 808 811 814 816 819 821 824 826 828 830 833 835 837 839 841 843 845 846 848 850 852 853 855 857
720 722 721 721 716 712 713 715 712 707 705 708 709 713 719 723 725 725 724 726 725 725 724 720 721 722 706 695 700 708 711 712 713 716 718 721 725 727 731 735 739 742 745 748 751 753 756 759 763 767 770 774 779 781 784 789 792 793 796 798 801 804 807 810 812 815 818 820 823 825 828 830 833 835 837 839 840 843 845 846 848 850 852 853 855 857
719 719 719 721 715 709 712 716 714 709 705 706 707 707 711 717 719 716 717 722 722 716 717 720 720 711 699 695 700 706 711 712 713 717 719 721 725 727 730 734 737 740 743 745 748 750 753 757 760 765 769 773 776 780 783 787 790 792 794 797 800 803 806 809 811 814 816 819 822 824 827 830 832 834 836 838 840 842 844 846 848 850 851 853 855 857
719 721 720 721 715 708 708 712 713 709 704 705 710 711 710 713 717 717 720 726 725 719 721 729 725 709 701 705 708 708 710 712 714 717 719 721 723 725 729 733 735 738 741 744 746 749 752 756 759 764 768 771 774 777 781 784 788 791 794 796 799 801 804 808 810 813 815 818 821 824 826 829 831 833 835 838 840 842 844 846 848 849 851 853 854 856
718 721 719 719 718 710 707 712 714 709 705 706 710 715 716 715 715 716 718 721 719 714 720 732 724 704 699 708 711 709 709 710 713 716 718 720 721 722 727 730 732 736 739 741 744 748 750 754 757 761 765 769 772 775 779 782 786 790 793 795 798 800 803 806 809 812 814 817 820 823 825 828 830 832 835 837 839 841 844 846 847 849 851 852 853 855
717 717 715 720 720 710 710 716 713 708 713 714 708 707 711 712 711 712 714 714 713 709 712 717 709 697 701 708 708 710 711 710 710 711 713 716 719 721 723 725 728 731 735 738 742 744 747 750 753 757 762 766 769 772 776 780 783 786 789 792 795 799 802 805 808 810 813 816 819 821 824 826 828 831 834 836 838 841 843 845 846 848 850 851 853 854
715 713 717 723 718 709 712 716 711 714 720 714 706 705 705 704 703 704 704 705 707 707 705 702 701 703 708 706 700 703 707 704 702 703 705 708 714 718 720 723 726 729 732 736 739 741 745 748 752 756 760 764 768 771 775 778 781 784 787 790 794 797 800 803 806 809 812 814 817 820 823 825 827 830 832 835 837 840 842 844 846 848 849 851 852 853
712 713 719 724 721 716 715 714 716 722 716 704 707 714 711 707 703 698 697 698 702 705 702 697 697 702 706 703 698 700 704 701 701 704 706 706 708 711 716 720 723 727 731 734 737 741 744 747 751 754 758 762 766 770 774 777 781 784 787 790 793 797 800 802 805 809 811 813 816 819 822 824 826 828 831 834 836 839 841 843 845 847 849 850 851 853
709 714 719 723 725 722 718 718 721 720 709 701 709 716 712 711 708 703 702 702 701 704 700 691 692 700 705 706 703 702 703 703 704 706 707 708 709 710 713 716 718 722 725 727 731 735 738 742 746 749 754 759 764 768 772 775 779 782 786 789 792 796 799 802 804 808 811 812 815 817 820 822 824 827 830 832 835 838 840 842 844 846 848 849 851 852
709 715 717 720 725 725 722 721 718 714 710 704 704 707 705 704 703 701 701 698 696 702 700 691 692 701 704 704 705 703 701 703 707 709 707 706 708 709 711 713 715 717 720 723 728 731 735 739 744 748 753 758 762 766 770 774 778 781 784 788 792 795 799 801 803 806 809 811 813 816 818 820 823 825 828 831 834 836 839 842 844 846 847 848 850 851
710 713 715 716 724 728 723 720 718 718 717 707 699 700 701 702 703 702 700 695 691 696 699 693 693 699 701 703 706 702 699 703 706 704 703 704 706 708 711 714 716 718 721 725 729 733 737 741 744 749 753 757 761 765 768 772 776 779 783 786 789 793 796 799 801 804 807 809 811 814 817 819 821 824 827 830 833 835 838 841 843 845 846 847 848 850
712 715 716 714 720 725 720 718 722 721 712 703 698 697 700 705 704 700 703 699 688 689 696 696 695 698 698 700 702 698 697 702 699 692 694 699 702 705 709 713 716 719 722 725 728 731 735 739 743 747 751 755 759 763 767 771 774 778 781 784 787 790 793 796 798 801 804 807 810 812 815 818 820 823 826 829 832 834 837 840 842 844 846 847 848 849
712 713 717 715 717 724 722 718 722 717 704 700 698 696 700 704 699 701 710 704 687 686 695 694 693 696 698 700 702 698 693 693 690 686 689 695 700 703 707 710 713 717 720 724 727 730 734 738 741 745 749 753 757 761 765 769 772 776 779 782 785 788 790 793 796 799 803 806 808 811 814 817 819 822 825 828 831 834 837 839 841 843 845 847 848 849
715 716 723 720 716 722 723 717 718 713 701 698 698 696 698 699 698 705 709 698 686 689 694 693 692 695 697 698 698 694 689 689 688 687 689 694 698 702 705 708 712 715 718 722 725 728 733 736 739 743 746 749 754 758 762 766 770 774 777 780 783 785 787 791 795 798 802 804 807 810 813 816 818 821 824 827 830 833 836 838 840 842 844 846 847 849
720 721 725 722 719 724 722 718 719 713 701 698 699 698 697 698 702 704 699 693 692 691 691 693 693 694 694 693 692 691 691 691 691 690 691 694 696 700 704 708 712 715 718 721 724 727 731 735 738 742 746 749 752 756 760 764 768 771 775 778 781 783 786 790 794 797 800 803 806 809 812 815 818 820 823 826 828 831 834 837 839 841 843 845 847 848
716 719 720 719 721 725 723 722 723 713 703 701 701 697 696 697 698 697 692 693 694 691 690 691 691 692 693 691 690 691 692 692 692 693 695 697 698 700 704 706 709 712 715 719 722 725 728 733 737 740 744 748 751 755 759 762 766 770 773 776 778 782 786 789 792 796 799 802 805 808 811 814 816 819 821 824 827 830 832 835 838 840 842 844 846 848
711 714 716 716 717 719 717 717 714 705 701 704 700 696 696 696 696 696 693 691 690 689 690 689 687 691 692 690 690 693 693 693 695 696 697 699 701 702 705 706 708 711 714 717 720 723 727 731 735 739 743 746 750 753 757 760 764 768 771 774 777 781 785 789 792 795 798 801 804 807 810 813 815 818 820 823 825 828 831 834 836 839 841 843 845 847
708 710 710 709 710 712 710 706 703 701 702 705 701 698 697 697 697 698 696 691 689 689 690 687 685 689 692 692 693 694 694 695 697 697 699 700 701 703 705 707 709 710 713 716 719 722 725 729 733 738 742 746 749 752 755 759 762 766 769 772 776 779 783 787 791 794 797 800 803 805 809 812 814 817 819 822 824 827 829 832 835 837 840 842 844 846
711 712 710 705 706 711 709 705 704 703 701 701 701 700 698 697 698 698 696 693 691 691 690 689 686 687 691 693 693 693 694 695 696 698 700 700 701 704 705 707 710 712 714 717 719 721 725 729 733 737 741 745 748 751 755 758 760 763 767 770 774 777 781 785 788 792 795 798 801 804 807 810 813 816 818 821 823 825 827 830 832 835 838 840 843 845
710 711 709 705 707 709 706 702 703 702 700 701 700 697 696 696 697 697 695 694 693 692 692 692 690 690 692 693 691 691 693 694 694 696 699 701 702 704 705 707 710 712 714 717 719 722 725 729 733 737 741 745 749 751 754 757 760 762 765 768 772 776 779 783 787 790 794 797 799 803 806 808 811 814 817 819 822 824 826 828 831 833 836 839 842 844
708 708 707 707 708 708 704 701 702 701 701 701 700 697 695 696 697 697 697 696 695 694 693 693 692 691 691 691 691 690 692 694 695 696 698 700 702 704 705 707 709 711 715 718 720 723 726 729 733 737 740 744 747 750 753 756 759 762 765 768 771 775 778 782 785 788 792 795 798 801 804 806 809 812 815 818 820 822 824 826 829 831 834 836 838 840
709 707 708 709 709 708 705 702 701 701 699 698 698 698 697 698 699 699 698 697 696 695 693 693 693 693 692 692 692 691 691 694 696 696 698 700 702 703 705 707 709 712 714 717 719 722 724 727 731 734 738 742 745 749 752 755 758 761 764 767 770 773 777 781 784 787 791 793 796 799 802 805 808 810 813 816 818 820 822 824 826 829 831 833 835 837
708 706 709 710 708 706 703 699 699 700 699 697 697 698 699 700 701 699 697 697 697 696 694 693 694 695 694 694 694 693 692 694 697 698 699 700 702 704 705 707 710 713 715 717 720 723 724 726 728 732 736 740 744 748 751 754 757 760 762 765 768 771 775 779 783 786 789 792 795 797 800 803 806 808 811 813 816 819 822 824 826 827 829 832 834 837
706 706 706 705 704 702 699 698 700 699 697 698 700 700 701 702 701 699 699 700 700 699 697 695 694 695 695 695 696 695 694 695 697 698 700 702 703 705 706 708 711 713 716 718 720 723 726 728 730 733 736 739 743 747 750 753 756 758 761 764 767 770 773 776 780 784 787 789 792 795 797 800 803 806 809 811 814 817 820 823 825 827 829 831 833 836